[[{"header":{"parameterUnit":"m.s-1","parameterCategory":1,"la1":30.2991,"la2":30.254,"lo1":-89.0895,"lo2":-89.0444,"dy":0.0017,"dx":0.0017,"nx":28,"ny":28,"refTime":"2024-09-25T09:00:00:Z","depth":0,"parameterNumber":2,"parameterNumberName":"U-component_of_WINDS"},"data":[0,0,0,0,0,0,0,0,0,0,0,0,0,0,0,0,0,0,0,0,0,0,0,0,0,0,0,0,0,0,0,0,0,0,0,0,0,0,0,0,0,0,0,0,0,0,0,0,0,0,0,0,0,0,0,0,0,0,0.3721,0.372,0,0.3671,0.367,0.367,0.3629,0.3629,0.3628,0.3628,0.3575,0.3574,0.3573,0,0,0,0,0,0,0,0,0,0,0,0,0,0.3779,0.3778,0.3721,0.372,0.3719,0.3671,0.367,0.367,0.3629,0.3629,0.3628,0.3628,0.3575,0.3574,0.3573,0,0,0,0,0,0,0,0,0,0,0,0,0,0.3744,0.3778,0.3721,0.3693,0.3691,0.3671,0.367,0.3669,0.3629,0.3629,0.3628,0.3627,0.3576,0.3574,0.3573,0.3576,0,0,0.3568,0.3568,0,0,0,0,0,0,0,0,0.3746,0.3742,0.3698,0.3695,0.3692,0.3656,0.3671,0.3638,0.3629,0.3652,0.3628,0.3627,0.3602,0.3599,0.3591,0.3574,0.3571,0.3568,0.3567,0.3567,0.3566,0,0,0,0,0,0,0,0.3748,0.3743,0.3701,0.3698,0.3694,0.3683,0.3677,0.3665,0.3631,0.365,0.3647,0.3642,0.36,0.3592,0.3589,0.3571,0.3568,0.3567,0.3566,0.3565,0.3552,0.3552,0,0,0,0,0,0,0.3755,0.3746,0.3702,0.3699,0.3718,0.3682,0.3676,0.3668,0.3631,0.3625,0.3643,0.364,0.3595,0.3591,0.3587,0.3587,0.3567,0.3565,0.3564,0.3551,0.3552,0.3553,0,0,0,0,0,0,0.3757,0.3752,0.3704,0.3722,0.3715,0.3682,0.3673,0.3667,0.3659,0.3626,0.3619,0.364,0.3594,0.3589,0.3579,0.3584,0.3564,0.3563,0.3551,0.3551,0.3552,0.3587,0,0,0,0,0,0,0.3758,0.3752,0.3754,0.3722,0.3714,0.3698,0.3674,0.3667,0.3656,0.3653,0.3622,0.3616,0.3593,0.3581,0.3577,0.3582,0.3562,0.355,0.3551,0.3552,0.3585,0.3589,0.3592,0,0,0,0,0,0.3761,0.3766,0.3754,0.3749,0.3715,0.3698,0.3694,0.3668,0.3657,0.3658,0.3636,0.3617,0.3585,0.3581,0.3576,0.358,0.3549,0.3551,0.3552,0.3584,0.3589,0.3592,0,0,0,0,0,0,0.3798,0.3761,0.3748,0.3743,0.3724,0.3691,0.3691,0.3674,0.3658,0.3655,0.3623,0.3617,0.3609,0.3594,0.359,0.358,0.3564,0.3565,0.359,0.3595,0.3598,0.3601,0.3561,0,0,0,0,0,0.3806,0.3796,0.3764,0.3763,0.3754,0.3725,0.3716,0.3698,0.3677,0.3669,0.3647,0.3627,0.3612,0.3603,0.3587,0.3584,0.3575,0.3584,0.3588,0.3591,0.3591,0.3586,0.3589,0.3557,0.3557,0.3557,0,0,0.3822,0.3801,0.3796,0.377,0.3753,0.3742,0.3718,0.3708,0.3699,0.3667,0.3655,0.3639,0.3614,0.3607,0.3602,0.3594,0.3598,0.3592,0.3595,0.3593,0.3587,0.3591,0.3593,0.3557,0.3557,0.3557,0,0,0.3845,0.3829,0.3825,0.3809,0.3784,0.3764,0.3764,0.3734,0.3721,0.3709,0.3684,0.3674,0.3649,0.3632,0.362,0.3637,0.3618,0.3633,0.365,0.3646,0.3649,0.3651,0.3655,0.3657,0.3633,0.3633,0.3633,0,0.3868,0.3851,0.3825,0.3816,0.3805,0.3776,0.3771,0.3757,0.3728,0.372,0.3711,0.3679,0.3661,0.3648,0.3652,0.3644,0.3641,0.3635,0.365,0.3652,0.3654,0.3657,0.3659,0.3635,0.3635,0.3635,0.3635,0,0.3879,0.3868,0.3868,0.3841,0.383,0.3824,0.3796,0.3787,0.377,0.3751,0.3739,0.3716,0.3695,0.3691,0.3674,0.3675,0.367,0.3657,0.364,0.3659,0.3662,0.3663,0.3638,0.3637,0.3637,0.3636,0,0,0.3924,0.3883,0.3883,0.387,0.384,0.3831,0.3823,0.3802,0.3795,0.3776,0.3768,0.3747,0.3734,0.3721,0.3702,0.3698,0.3711,0.3684,0.3683,0.3689,0.3709,0.3718,0.372,0.3699,0.3699,0.3699,0.371,0,0.3941,0.3925,0.3901,0.3892,0.3881,0.3853,0.3845,0.3826,0.3808,0.3795,0.3775,0.3761,0.3745,0.3737,0.3732,0.371,0.3714,0.3709,0.3689,0.3688,0.3694,0.3722,0.3732,0.3744,0.3711,0.3712,0.3712,0,0.3958,0.3941,0.3931,0.3902,0.3896,0.389,0.3869,0.3857,0.3834,0.3822,0.3807,0.3786,0.3775,0.3761,0.3744,0.3741,0.3732,0.372,0.372,0.3715,0.37,0.3717,0.3747,0.3749,0.3713,0.3713,0.3713,0,0.3989,0.3964,0.3954,0.3944,0.391,0.3906,0.3892,0.3868,0.3857,0.3839,0.3831,0.3812,0.38,0.3785,0.376,0.3752,0.3745,0.3729,0.3733,0.3733,0.3731,0.3731,0.3759,0.3728,0.3728,0.3728,0.3728,0,0.401,0.4004,0.3968,0.3962,0.3955,0.3927,0.3921,0.3904,0.3883,0.3872,0.3848,0.3838,0.3806,0.3792,0.3772,0.376,0.3756,0.3744,0.3739,0.3745,0.3747,0.3737,0.3735,0.3728,0.3728,0.3728,0.3728,0,0.4042,0.4018,0.4006,0.3974,0.3966,0.3962,0.3935,0.3928,0.3909,0.3896,0.3891,0.3861,0.3843,0.3817,0.3792,0.3778,0.3769,0.3761,0.3777,0.3773,0.3777,0.3776,0.3798,0.3799,0.377,0.377,0.377,0,0.4056,0.4051,0.402,0.4011,0.3997,0.3984,0.3973,0.3945,0.3934,0.3908,0.3903,0.3884,0.3867,0.3841,0.3816,0.3796,0.3786,0.3795,0.3783,0.3789,0.3784,0.3784,0.3783,0.3797,0.3798,0.3798,0.3799,0,0.4082,0.407,0.4055,0.4036,0.4023,0.4007,0.3988,0.3983,0.3951,0.394,0.3922,0.3909,0.3883,0.3864,0.3841,0.3825,0.3806,0.3803,0.3802,0.3808,0.3817,0.3811,0.3782,0.3802,0.3802,0.3802,0.3801,0.3801,0.4105,0.4099,0.4075,0.4059,0.4043,0.4026,0.4018,0.3998,0.3982,0.3959,0.3944,0.3927,0.3903,0.387,0.3855,0.3841,0.3833,0.3832,0.3832,0.3832,0.3833,0.3821,0.3836,0.3836,0.3836,0.3836,0.3836,0,0.4128,0.4112,0.4097,0.4073,0.406,0.4045,0.4024,0.4013,0.3999,0.3979,0.3963,0.3941,0.3923,0.3896,0.3875,0.3869,0.3859,0.3864,0.3863,0.3859,0.3843,0.3844,0.3872,0.3872,0.3872,0.3872,0.3872,0.3872,0.4138,0.4127,0.4112,0.4092,0.4076,0.4059,0.4048,0.4033,0.4016,0.3994,0.3979,0.3962,0.3939,0.3916,0.3898,0.389,0.3883,0.389,0.388,0.3864,0.3861,0.3858,0.3859,0.3889,0.3889,0.3897,0.3898,0.3898]},{"header":{"parameterUnit":"m.s-1","parameterCategory":1,"la1":30.2991,"la2":30.254,"lo1":-89.0895,"lo2":-89.0444,"dy":0.0017,"dx":0.0017,"nx":28,"ny":28,"refTime":"2024-09-25T09:00:00:Z","depth":0,"parameterNumber":3,"parameterNumberName":"V-component_of_WINDS"},"data":[0,0,0,0,0,0,0,0,0,0,0,0,0,0,0,0,0,0,0,0,0,0,0,0,0,0,0,0,0,0,0,0,0,0,0,0,0,0,0,0,0,0,0,0,0,0,0,0,0,0,0,0,0,0,0,0,0,0,0.7361,0.736,0,0.7313,0.7313,0.7312,0.7279,0.7279,0.7279,0.7279,0.7229,0.7228,0.7227,0,0,0,0,0,0,0,0,0,0,0,0,0,0.742,0.7419,0.7361,0.736,0.736,0.7313,0.7313,0.7312,0.728,0.7279,0.7279,0.7279,0.7229,0.7228,0.7226,0,0,0,0,0,0,0,0,0,0,0,0,0,0.7386,0.7419,0.7361,0.7338,0.7335,0.7314,0.7313,0.7312,0.728,0.7279,0.7279,0.7278,0.7229,0.7228,0.7226,0.7223,0,0,0.7221,0.722,0,0,0,0,0,0,0,0,0.7388,0.7383,0.7342,0.7339,0.7336,0.7302,0.7315,0.7282,0.728,0.7301,0.7279,0.7278,0.7253,0.725,0.7242,0.7221,0.7219,0.7221,0.722,0.7219,0.7219,0,0,0,0,0,0,0,0.739,0.7385,0.7342,0.7341,0.7338,0.7329,0.7324,0.7309,0.728,0.7299,0.7296,0.7291,0.7252,0.7243,0.724,0.7218,0.7221,0.722,0.7219,0.7218,0.719,0.719,0,0,0,0,0,0,0.7396,0.7388,0.7343,0.7341,0.7362,0.7328,0.7322,0.7313,0.728,0.7274,0.7292,0.729,0.7246,0.7242,0.7238,0.7231,0.7219,0.7218,0.7217,0.719,0.719,0.719,0,0,0,0,0,0,0.7398,0.7393,0.7345,0.7363,0.7357,0.7327,0.7318,0.7313,0.7304,0.7274,0.7269,0.7288,0.7246,0.7241,0.7227,0.7229,0.7217,0.7216,0.7189,0.719,0.719,0.7218,0,0,0,0,0,0,0.74,0.7394,0.7393,0.7364,0.7356,0.7336,0.7318,0.7312,0.7302,0.7299,0.727,0.7265,0.7245,0.7229,0.7225,0.7226,0.7214,0.7189,0.719,0.719,0.7216,0.7219,0.7221,0,0,0,0,0,0.7402,0.7403,0.7393,0.7388,0.7355,0.7336,0.7332,0.731,0.7302,0.73,0.7281,0.7265,0.7229,0.7228,0.7223,0.7224,0.7189,0.7189,0.719,0.7215,0.7218,0.7221,0,0,0,0,0,0,0.7433,0.7399,0.7388,0.7379,0.7361,0.7331,0.7328,0.7314,0.7297,0.7295,0.7268,0.7262,0.725,0.7236,0.7235,0.7218,0.7207,0.7207,0.7228,0.7231,0.7233,0.7237,0.7213,0,0,0,0,0,0.7439,0.7428,0.7398,0.7393,0.7385,0.7358,0.7349,0.7334,0.7313,0.7305,0.7285,0.7265,0.7249,0.7239,0.7223,0.7214,0.7206,0.7212,0.7214,0.7216,0.7216,0.7208,0.721,0.7192,0.7192,0.7192,0,0,0.7451,0.7431,0.7425,0.7399,0.7383,0.737,0.7352,0.734,0.733,0.7303,0.7289,0.7273,0.7249,0.7237,0.7231,0.7225,0.7219,0.7217,0.7219,0.7217,0.7209,0.7211,0.7212,0.7193,0.7192,0.7192,0,0,0.7467,0.7451,0.7445,0.7429,0.7404,0.7387,0.7385,0.7357,0.7345,0.733,0.7309,0.7296,0.727,0.7253,0.7241,0.7248,0.7232,0.7243,0.7255,0.7248,0.7249,0.725,0.7251,0.7252,0.7243,0.7243,0.7243,0,0.7485,0.7466,0.7443,0.7432,0.742,0.7395,0.7387,0.7373,0.7345,0.7336,0.733,0.7294,0.7277,0.726,0.7261,0.7253,0.7249,0.7246,0.7251,0.7252,0.7252,0.7253,0.7254,0.7245,0.7244,0.7244,0.7244,0,0.7489,0.7476,0.7474,0.7447,0.7435,0.7425,0.7399,0.739,0.7375,0.7357,0.7341,0.7318,0.7296,0.7291,0.7276,0.7271,0.7267,0.7256,0.7245,0.7256,0.7256,0.7256,0.7247,0.7246,0.7246,0.7245,0,0,0.7524,0.7483,0.7482,0.7469,0.744,0.7429,0.7418,0.7396,0.7388,0.7368,0.7357,0.7334,0.7323,0.7309,0.7292,0.7286,0.7291,0.7275,0.7274,0.7278,0.7281,0.729,0.729,0.728,0.728,0.728,0.7283,0,0.7534,0.7514,0.7491,0.7478,0.7465,0.744,0.743,0.741,0.7392,0.7378,0.7358,0.7342,0.7329,0.732,0.7313,0.7292,0.7291,0.7291,0.7268,0.7268,0.7275,0.7291,0.73,0.7304,0.7283,0.7283,0.7283,0,0.7544,0.7526,0.7511,0.7481,0.7475,0.7467,0.7444,0.7431,0.7407,0.7394,0.7378,0.736,0.7345,0.7335,0.7313,0.7313,0.7302,0.729,0.729,0.7286,0.7276,0.7287,0.7305,0.7305,0.7283,0.7283,0.7283,0,0.7569,0.7541,0.7528,0.7518,0.7483,0.7477,0.7462,0.7438,0.7426,0.7406,0.7397,0.7376,0.7363,0.7346,0.7322,0.7317,0.7301,0.729,0.729,0.729,0.7288,0.7288,0.7303,0.7282,0.7282,0.7282,0.7282,0,0.7583,0.7575,0.7539,0.7531,0.752,0.7494,0.7484,0.7467,0.7445,0.7432,0.7409,0.7397,0.7365,0.7349,0.733,0.7313,0.7308,0.7297,0.7292,0.7299,0.73,0.7291,0.729,0.7282,0.7282,0.7282,0.7282,0,0.761,0.7586,0.757,0.7538,0.753,0.7523,0.7495,0.7485,0.7466,0.745,0.7445,0.7414,0.7394,0.7367,0.7339,0.7325,0.7311,0.7303,0.7319,0.7316,0.7317,0.7317,0.7326,0.7325,0.7305,0.7306,0.7306,0,0.762,0.7613,0.758,0.757,0.7556,0.754,0.7527,0.75,0.7488,0.7459,0.7452,0.743,0.7411,0.7379,0.7354,0.7331,0.7322,0.7327,0.7319,0.7325,0.7321,0.7321,0.732,0.7329,0.7329,0.733,0.733,0,0.764,0.7628,0.7611,0.7589,0.7575,0.7556,0.7537,0.753,0.7498,0.7485,0.7464,0.7449,0.7419,0.7397,0.737,0.7353,0.7336,0.7333,0.7331,0.7338,0.7347,0.7341,0.7324,0.7333,0.7332,0.7332,0.7332,0.7332,0.7658,0.765,0.7625,0.7606,0.7589,0.757,0.756,0.7539,0.7521,0.7495,0.748,0.7459,0.7433,0.7396,0.7379,0.7361,0.7355,0.7353,0.7352,0.7352,0.7354,0.735,0.7356,0.7356,0.7356,0.7356,0.7356,0,0.7675,0.7658,0.7641,0.7614,0.7599,0.7585,0.7562,0.7549,0.7532,0.7509,0.7491,0.7465,0.7443,0.7415,0.7391,0.7382,0.7373,0.7376,0.7376,0.7372,0.7362,0.7365,0.7383,0.7383,0.7383,0.7383,0.7383,0.7383,0.7683,0.7668,0.7653,0.7629,0.7611,0.7591,0.7579,0.7561,0.7543,0.7516,0.7498,0.748,0.7454,0.7427,0.7406,0.7398,0.7389,0.7395,0.7384,0.7375,0.7373,0.7371,0.7374,0.7393,0.7393,0.7396,0.7396,0.7396]}]]